When you browse on this site, cookies collect data to enhance your experience and personalize the content and advertising you see.
Visit our Privacy Policy to learn more. By continuing to use the site, you agree to this use of cookies and data.

Meteo pe oră la Veliko Tarnovo

Astăzi, 8 Iulie, Miercuri

Timp Temperatura Precipitaţii Vânt Presiune Umiditate
00:00 +16°C° 0 mm 6 m/s 736 mmHg 69%
01:00 +15°C° 0 mm 5 m/s 737 mmHg 71%
02:00 +15°C° 0 mm 4 m/s 737 mmHg 73%
03:00 +14°C° 0 mm 3 m/s 737 mmHg 75%
04:00 +13°C° 0 mm 3 m/s 737 mmHg 78%
05:00 +14°C° 0 mm 2 m/s 738 mmHg 81%
06:00 +15°C° 0 mm 2 m/s 738 mmHg 78%
07:00 +16°C° 0 mm 2 m/s 739 mmHg 74%
08:00 +17°C° 0 mm 2 m/s 739 mmHg 71%
09:00 +18°C° 0 mm 2 m/s 739 mmHg 69%
10:00 +19°C° 0 mm 2 m/s 740 mmHg 66%
11:00 +20°C° 0 mm 2 m/s 740 mmHg 64%
12:00 +22°C° 0 mm 1 m/s 740 mmHg 62%
13:00 +23°C° 0 mm 1 m/s 740 mmHg 59%
14:00 +24°C° 0 mm 1 m/s 739 mmHg 57%
15:00 +24°C° 0 mm 1 m/s 739 mmHg 57%
16:00 +24°C° 0 mm 1 m/s 739 mmHg 57%
17:00 +25°C° 0 mm 1 m/s 739 mmHg 57%
18:00 +23°C° 0 mm 1 m/s 739 mmHg 62%
19:00 +21°C° 0 mm 1 m/s 739 mmHg 68%
20:00 +20°C° 0 mm 1 m/s 739 mmHg 74%
21:00 +19°C° 0 mm 1 m/s 740 mmHg 76%
22:00 +18°C° 0 mm 1 m/s 740 mmHg 78%
23:00 +18°C° 0 mm 1 m/s 740 mmHg 80%

Mâine, 9 Iulie, Joi

Timp Temperatura Precipitaţii Vânt Presiune Umiditate
00:00 +16°C° 0 mm 1 m/s 740 mmHg 80%
01:00 +16°C° 0 mm 1 m/s 740 mmHg 80%
02:00 +16°C° 0 mm 1 m/s 741 mmHg 81%
03:00 +16°C° 0 mm 1 m/s 741 mmHg 81%
04:00 +15°C° 0 mm 1 m/s 741 mmHg 82%
05:00 +15°C° 0 mm 1 m/s 741 mmHg 82%
06:00 +16°C° 0 mm 0 m/s 741 mmHg 76%
07:00 +18°C° 0 mm 0 m/s 741 mmHg 71%
08:00 +20°C° 0 mm 0 m/s 741 mmHg 65%
09:00 +22°C° 0 mm 0 m/s 741 mmHg 61%
10:00 +25°C° 0 mm 1 m/s 741 mmHg 56%
11:00 +27°C° 0 mm 1 m/s 742 mmHg 52%
12:00 +27°C° 0 mm 1 m/s 741 mmHg 50%
13:00 +28°C° 0 mm 1 m/s 741 mmHg 47%
14:00 +29°C° 0 mm 1 m/s 741 mmHg 45%
15:00 +28°C° 0 mm 1 m/s 740 mmHg 46%
16:00 +28°C° 0 mm 1 m/s 740 mmHg 46%
17:00 +28°C° 0 mm 1 m/s 740 mmHg 47%
18:00 +26°C° 0 mm 1 m/s 740 mmHg 53%
19:00 +24°C° 0 mm 1 m/s 740 mmHg 59%
20:00 +22°C° 0 mm 1 m/s 740 mmHg 65%
21:00 +21°C° 0 mm 1 m/s 740 mmHg 67%
22:00 +21°C° 0 mm 1 m/s 740 mmHg 69%
23:00 +20°C° 0 mm 1 m/s 741 mmHg 70%

Poimâine, 10 Iulie, Vineri

Timp Temperatura Precipitaţii Vânt Presiune Umiditate
00:00 +19°C° 0 mm 1 m/s 741 mmHg 71%
01:00 +19°C° 0 mm 1 m/s 740 mmHg 73%
02:00 +19°C° 0 mm 1 m/s 740 mmHg 74%
03:00 +19°C° 0 mm 1 m/s 740 mmHg 74%
04:00 +18°C° 0 mm 1 m/s 740 mmHg 73%
05:00 +18°C° 0 mm 1 m/s 741 mmHg 73%
06:00 +20°C° 0 mm 1 m/s 741 mmHg 69%
07:00 +22°C° 0 mm 1 m/s 741 mmHg 65%
08:00 +24°C° 0 mm 1 m/s 741 mmHg 60%
09:00 +26°C° 0 mm 1 m/s 741 mmHg 57%
10:00 +27°C° 0 mm 2 m/s 741 mmHg 54%
11:00 +28°C° 0 mm 3 m/s 741 mmHg 50%
12:00 +29°C° 0 mm 3 m/s 741 mmHg 49%
13:00 +29°C° 0 mm 3 m/s 741 mmHg 48%
14:00 +30°C° 0 mm 4 m/s 740 mmHg 47%
15:00 +29°C° 0 mm 3 m/s 740 mmHg 49%
16:00 +29°C° 0 mm 3 m/s 740 mmHg 50%
17:00 +29°C° 0 mm 3 m/s 740 mmHg 52%
18:00 +27°C° 0 mm 3 m/s 740 mmHg 58%
19:00 +25°C° 0 mm 2 m/s 740 mmHg 64%
20:00 +23°C° 0 mm 2 m/s 740 mmHg 70%
21:00 +21°C° 0 mm 2 m/s 740 mmHg 72%
22:00 +20°C° 0 mm 2 m/s 740 mmHg 75%
23:00 +19°C° 0 mm 2 m/s 740 mmHg 77%

11 Iulie, Sâmbătă

Timp Temperatura Precipitaţii Vânt Presiune Umiditate
00:00 +18°C° 0 mm 2 m/s 740 mmHg 80%
01:00 +19°C° 0 mm 1 m/s 740 mmHg 82%
02:00 +18°C° 0 mm 1 m/s 740 mmHg 85%
03:00 +18°C° 0 mm 1 m/s 740 mmHg 86%
04:00 +18°C° 0 mm 1 m/s 740 mmHg 87%
05:00 +18°C° 0 mm 1 m/s 739 mmHg 89%
06:00 +20°C° 0 mm 1 m/s 739 mmHg 82%
07:00 +22°C° 0 mm 1 m/s 740 mmHg 75%
08:00 +24°C° 0 mm 2 m/s 740 mmHg 68%
09:00 +25°C° 0 mm 2 m/s 740 mmHg 63%
10:00 +27°C° 0 mm 3 m/s 740 mmHg 59%
11:00 +28°C° 0 mm 3 m/s 740 mmHg 54%
12:00 +29°C° 0 mm 3 m/s 739 mmHg 53%
13:00 +29°C° 0 mm 3 m/s 739 mmHg 53%
14:00 +30°C° 0 mm 3 m/s 738 mmHg 52%
15:00 +29°C° 0 mm 3 m/s 738 mmHg 54%
16:00 +29°C° 0 mm 3 m/s 738 mmHg 56%
17:00 +29°C° 0 mm 3 m/s 737 mmHg 58%
18:00 +27°C° 0 mm 3 m/s 737 mmHg 64%
19:00 +25°C° 0 mm 2 m/s 737 mmHg 70%
20:00 +23°C° 0 mm 2 m/s 737 mmHg 76%
21:00 +23°C° 0 mm 2 m/s 738 mmHg 78%
22:00 +21°C° 0 mm 2 m/s 738 mmHg 80%
23:00 +20°C° 0 mm 2 m/s 738 mmHg 82%

12 Iulie, Duminică

Timp Temperatura Precipitaţii Vânt Presiune Umiditate
00:00 +20°C° 0 mm 1 m/s 737 mmHg 83%
01:00 +20°C° 0 mm 1 m/s 737 mmHg 85%
02:00 +20°C° 0 mm 1 m/s 737 mmHg 86%
03:00 +19°C° 0 mm 1 m/s 737 mmHg 87%
04:00 +19°C° 0 mm 1 m/s 737 mmHg 87%
05:00 +17°C° 0 mm 0 m/s 737 mmHg 88%
06:00 +21°C° 0 mm 1 m/s 737 mmHg 82%
07:00 +23°C° 0 mm 1 m/s 737 mmHg 76%
08:00 +25°C° 0 mm 1 m/s 738 mmHg 70%
09:00 +26°C° 0.1 mm 2 m/s 738 mmHg 67%
10:00 +27°C° 0.1 mm 3 m/s 738 mmHg 64%
11:00 +28°C° 0.1 mm 4 m/s 738 mmHg 61%
12:00 +28°C° 0.1 mm 4 m/s 738 mmHg 60%
13:00 +29°C° 0.1 mm 4 m/s 737 mmHg 59%
14:00 +29°C° 0.1 mm 5 m/s 737 mmHg 58%
15:00 +29°C° 0.1 mm 5 m/s 737 mmHg 58%
16:00 +29°C° 0.1 mm 5 m/s 737 mmHg 58%
17:00 +28°C° 0.1 mm 5 m/s 737 mmHg 58%
18:00 +27°C° 0 mm 4 m/s 737 mmHg 61%
19:00 +25°C° 0 mm 4 m/s 737 mmHg 64%
20:00 +22°C° 0 mm 4 m/s 737 mmHg 67%
21:00 +21°C° 0 mm 3 m/s 738 mmHg 68%
22:00 +20°C° 0 mm 3 m/s 738 mmHg 68%
23:00 +19°C° 0 mm 3 m/s 739 mmHg 69%

13 Iulie, Luni

Timp Temperatura Precipitaţii Vânt Presiune Umiditate
00:00 +18°C° 0 mm 3 m/s 739 mmHg 72%
01:00 +18°C° 0 mm 2 m/s 739 mmHg 74%
02:00 +17°C° 0 mm 2 m/s 739 mmHg 77%
03:00 +17°C° 0 mm 2 m/s 739 mmHg 78%
04:00 +16°C° 0 mm 2 m/s 739 mmHg 78%
05:00 +16°C° 0 mm 2 m/s 739 mmHg 79%
06:00 +16°C° 0 mm 2 m/s 739 mmHg 78%
07:00 +16°C° 0 mm 2 m/s 740 mmHg 78%
08:00 +17°C° 0 mm 2 m/s 740 mmHg 78%
09:00 +17°C° 0 mm 2 m/s 740 mmHg 73%
10:00 +18°C° 0 mm 2 m/s 740 mmHg 69%
11:00 +19°C° 0 mm 2 m/s 740 mmHg 65%
12:00 +20°C° 0 mm 2 m/s 740 mmHg 62%
13:00 +21°C° 0 mm 2 m/s 740 mmHg 59%
14:00 +23°C° 0 mm 2 m/s 740 mmHg 56%
15:00 +23°C° 0 mm 2 m/s 740 mmHg 56%
16:00 +23°C° 0 mm 2 m/s 739 mmHg 56%
17:00 +24°C° 0 mm 2 m/s 739 mmHg 56%
18:00 +22°C° 0 mm 1 m/s 739 mmHg 63%
19:00 +20°C° 0 mm 1 m/s 739 mmHg 70%
20:00 +18°C° 0 mm 1 m/s 739 mmHg 77%
21:00 +18°C° 0 mm 1 m/s 740 mmHg 79%
22:00 +16°C° 0 mm 1 m/s 740 mmHg 80%
23:00 +16°C° 0 mm 1 m/s 740 mmHg 82%
Arată mai mult